Location: Brno
(49.2000°N, 16.6330°E)
Time: 18:19:09
(UTC+02:00)

ISS - Visible Passes

Search period start: 19 October 2020 00:00
Search period end: 28 October 2020 23:00
Orbit: 418 x 419 km, 51.6° (Epoch: 19 October)

Date Brightness Start Highest point End Pass type
(mag) Time Alt. Az. Time Alt. Az. Time Alt. Az.
22 Oct -0.3 06:07:17 10° SE 06:07:36 10° SE 06:07:54 10° SE visible
24 Oct -1.5 06:05:46 10° SSW 06:08:28 23° SE 06:11:12 10° E visible
25 Oct -1.1 04:19:31 13° SSE 04:20:55 15° SE 04:22:59 10° E visible
25 Oct -3.4 05:53:54 10° WSW 05:57:14 69° SSE 06:00:36 10° ENE visible
26 Oct -3.0 05:07:11 17° SW 05:09:32 48° SSE 05:12:48 10° ENE visible
27 Oct -2.4 04:21:45 33° SSE 04:21:53 33° SE 04:24:57 10° E visible
27 Oct -3.7 05:55:10 10° W 05:58:32 72° NNW 06:01:54 10° ENE visible
28 Oct -0.6 03:36:12 14° E 03:36:12 14° E 03:36:59 10° E visible
28 Oct -3.8 05:09:09 28° WSW 05:10:46 90° NNW 05:14:08 10° ENE visible
